CW4167 Weather Reports


Display with metric or nautical units.
time (UTC)temp
F
wind
direction
speed
MPH
gust
MPH
rain 1hr
in
rain 24hr
in
rain mn
in
humidity
%
barometer
mb
20221205205205 36 25 5.0 6.0 0.00 0.01 0.01 100 1017.2
20221205203705 36 28 2.0 5.0 0.00 0.01 0.01 100 1017.2
20221205203204 36 29 3.0 5.0 0.00 0.01 0.01 100 1017.3
20221205202204 36 29 3.0 5.0 0.00 0.01 0.01 100 1017.4
20221205201205 36 30 5.0 5.0 0.00 0.01 0.01 100 1017.4
20221205200705 36 32 4.0 6.0 0.00 0.01 0.01 100 1017.4
20221205200205 36 30 6.0 8.0 0.00 0.01 0.01 100 1017.5
20221205195205 36 12 3.0 3.0 0.00 0.01 0.01 100 1017.6
20221205194705 36 12 4.0 6.0 0.00 0.01 0.01 100 1017.7
20221205194204 36 19 4.0 8.0 0.00 0.01 0.01 100 1017.7
20221205193705 36 21 5.0 7.0 0.00 0.01 0.01 100 1017.7
20221205193205 36 26 5.0 6.0 0.00 0.01 0.01 100 1017.7
20221205191705 36 38 7.0 10.0 0.00 0.01 0.01 100 1017.6
20221205185704 36 66 10.0 13.0 0.00 0.01 0.01 100 1017.7
20221205184704 36 51 9.0 14.0 0.00 0.01 0.01 100 1017.7
20221205184205 36 54 8.0 14.0 0.00 0.01 0.01 100 1017.8
20221205183704 36 48 6.0 10.0 0.00 0.01 0.01 100 1017.8
20221205183205 36 44 10.0 15.0 0.00 0.01 0.01 100 1017.8
20221205175705 36 37 9.0 15.0 0.00 0.01 0.01 100 1017.9
20221205174705 36 42 9.0 10.0 0.00 0.01 0.01 100 1017.9
20221205174204 36 45 10.0 15.0 0.00 0.01 0.01 100 1017.9
20221205173705 36 37 11.0 16.0 0.00 0.01 0.01 100 1018.0
20221205173205 36 45 8.0 14.0 0.00 0.01 0.01 100 1018.1
20221205172704 36 43 11.0 14.0 0.00 0.01 0.01 100 1018.1
20221205172205 36 40 7.0 13.0 0.00 0.01 0.01 100 1018.1
20221205171704 36 48 10.0 15.0 0.00 0.01 0.01 100 1018.1
20221205171204 36 45 9.0 14.0 0.00 0.01 0.01 100 1018.1
20221205170704 36 42 6.0 14.0 0.00 0.01 0.01 100 1018.1
20221205170204 36 39 9.0 13.0 0.00 0.01 0.01 100 1018.1
20221205165204 36 43 10.0 14.0 0.00 0.01 0.01 100 1018.1
20221205164705 36 35 6.0 13.0 0.00 0.01 0.01 100 1018.1
20221205163705 36 40 13.0 14.0 0.00 0.01 0.01 100 1018.1
20221205163205 36 41 12.0 14.0 0.00 0.01 0.01 100 1018.1
20221205162204 36 41 10.0 13.0 0.00 0.01 0.01 100 1018.1
20221205155704 36 34 10.0 13.0 0.00 0.01 0.01 100 1018.3
20221205153705 36 35 10.0 15.0 0.00 0.01 0.01 93 1018.4
20221205151204 36 40 10.0 14.0 0.00 0.01 0.01 93 1018.4
20221205150704 36 41 12.0 15.0 0.00 0.01 0.01 93 1018.4
20221205150204 36 32 13.0 18.0 0.00 0.01 0.01 93 1018.4
20221205145704 36 37 13.0 17.0 0.00 0.01 0.01 93 1018.4
20221205142204 36 31 10.0 15.0 0.00 0.01 0.01 93 1018.6
20221205141704 36 30 8.0 14.0 0.00 0.01 0.01 93 1018.7
20221205141204 36 37 9.0 15.0 0.00 0.01 0.01 93 1018.7
20221205140204 36 42 9.0 15.0 0.00 0.01 0.01 93 1018.7
20221205134204 37 39 9.0 15.0 0.00 0.01 0.01 93 1018.8
20221205132704 37 34 10.0 15.0 0.00 0.01 0.01 93 1018.8
20221205131204 37 37 12.0 16.0 0.00 0.01 0.01 93 1018.9
20221205130704 37 39 9.0 15.0 0.00 0.01 0.01 93 1018.9
20221205125704 37 36 12.0 17.0 0.00 0.01 0.01 93 1019.0
20221205124705 37 46 12.0 21.0 0.00 0.01 0.01 93 1019.1
20221205123203 37 31 14.0 17.0 0.00 0.01 0.01 93 1019.2
20221205122704 37 40 12.0 15.0 0.00 0.01 0.01 93 1019.3
20221205122204 37 34 12.0 17.0 0.00 0.01 0.01 93 1019.4
20221205121704 37 29 15.0 17.0 0.00 0.01 0.01 93 1019.4
20221205115706 37 32 12.0 17.0 0.00 0.01 0.01 93 1019.6
20221205114705 37 42 13.0 16.0 0.00 0.01 0.01 93 1019.6
20221205112706 37 50 12.0 17.0 0.00 0.01 0.01 93 1019.9
20221205111706 37 48 12.0 15.0 0.00 0.01 0.01 93 1019.9
20221205111206 37 39 14.0 20.0 0.00 0.01 0.01 93 1019.9
20221205110206 37 46 12.0 16.0 0.00 0.01 0.01 93 1020.0
20221205105705 37 47 11.0 15.0 0.00 0.01 0.01 86 1020.1
20221205105205 37 45 10.0 14.0 0.00 0.01 0.01 86 1020.2
20221205104206 37 47 12.0 16.0 0.00 0.01 0.01 86 1020.2
20221205103205 37 39 12.0 18.0 0.00 0.01 0.01 86 1020.3
20221205102705 37 54 12.0 15.0 0.00 0.01 0.01 86 1020.5
20221205102205 37 45 13.0 18.0 0.00 0.01 0.01 86 1020.5
20221205101706 37 41 11.0 16.0 0.00 0.01 0.01 86 1020.5
20221205101205 37 39 9.0 15.0 0.00 0.01 0.01 86 1020.5
20221205100205 37 31 14.0 17.0 0.00 0.01 0.01 86 1020.6
20221205091205 37 36 10.0 17.0 0.00 0.01 0.01 80 1021.0
20221205090706 37 44 11.0 16.0 0.00 0.01 0.01 80 1020.9
20221205090205 37 41 13.0 17.0 0.00 0.01 0.01 80 1020.9
20221205085705 37 36 14.0 18.0 0.00 0.01 0.01 86 1020.9
20221205084706 37 36 12.0 16.0 0.00 0.01 0.01 86 1020.8
20221205083705 37 44 14.0 15.0 0.00 0.01 0.01 86 1020.8
20221205082705 37 28 9.0 15.0 0.00 0.01 0.01 80 1020.8
20221205082205 37 12 9.0 14.0 0.00 0.01 0.01 80 1020.8
20221205081705 37 32 9.0 14.0 0.00 0.01 0.01 80 1020.7
20221205080705 37 42 11.0 18.0 0.00 0.01 0.01 80 1020.8
20221205080205 37 50 10.0 17.0 0.00 0.01 0.01 80 1020.8
20221205072705 37 35 10.0 17.0 0.00 0.01 0.01 86 1020.9
20221205072205 37 34 10.0 15.0 0.00 0.01 0.01 86 1020.9
20221205070705 37 35 10.0 15.0 0.00 0.01 0.01 86 1020.9
20221205065205 37 32 9.0 14.0 0.00 0.01 0.01 86 1020.9
20221205064205 37 33 8.0 13.0 0.00 0.01 0.01 86 1020.8
20221205063205 37 24 7.0 13.0 0.00 0.01 0.01 86 1020.9
20221205061205 37 34 7.0 14.0 0.00 0.01 0.01 86 1020.9
20221205055705 37 22 10.0 14.0 0.00 0.01 0.01 86 1021.0
20221205055205 37 7 9.0 13.0 0.00 0.01 0.01 86 1020.9
20221205054706 37 31 8.0 10.0 0.00 0.01 0.01 86 1021.0
20221205054205 37 36 8.0 16.0 0.00 0.01 0.01 86 1021.0
20221205052704 37 35 9.0 13.0 0.00 0.01 0.01 86 1021.2
20221205051705 37 41 12.0 14.0 0.00 0.01 0.01 86 1021.2
20221205044705 36 33 13.0 18.0 0.00 0.01 0.01 93 1021.3
20221205043705 36 40 14.0 18.0 0.00 0.01 0.01 93 1021.3
20221205041206 36 35 13.0 22.0 0.00 0.01 0.01 93 1021.4
20221205040705 36 27 13.0 18.0 0.00 0.01 0.01 93 1021.4
20221205040206 36 37 14.0 17.0 0.00 0.01 0.01 93 1021.3
20221205033705 36 40 15.0 18.0 0.00 0.01 0.01 93 1021.4
20221205033205 36 41 14.0 20.0 0.00 0.01 0.01 80 1021.5
20221205032705 36 26 12.0 21.0 0.00 0.01 0.01 80 1021.5
20221205031205 36 38 15.0 16.0 0.00 0.01 0.01 80 1021.5
20221205024205 36 36 13.0 18.0 0.00 0.01 0.01 86 1021.9
20221205022705 36 28 13.0 17.0 0.00 0.01 0.01 86 1021.9
20221205020205 36 37 16.0 18.0 0.00 0.01 0.01 86 1022.1
20221205015704 36 35 13.0 20.0 0.00 0.01 0.01 86 1022.1
20221205015205 36 33 10.0 20.0 0.00 0.01 0.01 86 1022.1
20221205014205 36 25 12.0 17.0 0.00 0.01 0.01 86 1022.2
20221205012705 36 31 12.0 18.0 0.00 0.01 0.01 86 1022.3
20221205011705 36 27 13.0 18.0 0.00 0.01 0.01 86 1022.3
20221205011205 36 29 12.0 20.0 0.00 0.01 0.01 86 1022.3
20221205005205 36 29 9.0 17.0 0.01 0.01 0.01 86 1022.4
20221205004205 36 28 14.0 18.0 0.01 0.01 0.01 86 1022.5
20221205003705 36 30 10.0 15.0 0.01 0.01 0.01 86 1022.5
20221205003204 36 28 10.0 17.0 0.01 0.01 0.01 86 1022.5
20221205002705 36 34 9.0 17.0 0.01 0.01 0.01 86 1022.5
20221205002205 36 29 13.0 21.0 0.01 0.01 0.01 86 1022.6
20221205001705 36 32 13.0 18.0 0.01 0.02 0.01 86 1022.6
20221205000205 36 31 14.0 17.0 0.01 0.02 0.01 86 1022.8
20221204235205 36 34 13.0 16.0 0.00 0.01 0.00 86 1022.8
20221204234705 36 38 12.0 16.0 0.00 0.01 0.00 86 1022.8
20221204233204 36 28 12.0 17.0 0.00 0.01 0.00 86 1023.1
20221204232705 36 36 10.0 17.0 0.00 0.01 0.00 86 1023.1
20221204232205 36 37 13.0 16.0 0.00 0.01 0.00 86 1023.1
20221204231205 36 34 16.0 21.0 0.00 0.01 0.00 86 1023.2
20221204230706 36 31 12.0 20.0 0.00 0.01 0.00 86 1023.2
20221204225704 36 35 14.0 17.0 0.00 0.01 0.01 93 1023.2
20221204225204 36 37 16.0 20.0 0.00 0.02 0.01 93 1023.2
20221204224205 36 32 15.0 20.0 0.00 0.02 0.01 93 1023.3
20221204223205 37 41 15.0 21.0 0.00 0.02 0.01 93 1023.3
20221204222705 37 39 13.0 20.0 0.00 0.02 0.01 93 1023.3
20221204220705 37 39 16.0 21.0 0.00 0.02 0.01 93 1023.5
20221204220204 37 42 17.0 25.0 0.00 0.02 0.01 93 1023.5
20221204215705 37 38 16.0 24.0 0.00 0.02 0.01 86 1023.6
20221204215204 37 43 16.0 18.0 0.00 0.02 0.01 86 1023.6
20221204213205 37 47 16.0 21.0 0.00 0.02 0.01 86 1023.7
20221204212704 37 41 16.0 23.0 0.00 0.02 0.01 86 1023.7
20221204212204 37 40 15.0 20.0 0.00 0.02 0.01 86 1023.7
20221204211205 37 47 17.0 21.0 0.00 0.02 0.01 86 1023.6